Volver al catálogo

FENGYUN 1C DEB

LostSSO
NORAD 32193·DEBRIS·🇨🇳 China

Lanzado May 10, 1999 desde Taiyuan Satellite Launch Center

Loading…

Próximos Pases (próximas 24 horas)

TLE

ObsoletoSource: Space-Track

Época: May 24, 2024, 11:33 UTC

1 32193U 99025CUP 24145.48170259  .00018092  00000-0  55161-2 0  9995
2 32193  98.4664 239.0209 0074640 287.7727  71.5327 14.40376042869002

Sigue FENGYUN 1C DEB en tiempo real con AllMySat

Download on the App Store